Flag for U.S.A. Weather past 2 weeks in Spartanburg, South Carolina, U.S.A.

Now
95 °F

Sunny.


Feels Like: 100 °F
Forecast: 72 / 93 °F
Wind: 9 mph from Southwest

Location: Spartanburg Memorial

Current Time: Sep 2, 2014 at 3:02:52 PM

Latest Report: Sep 2, 2014 at 2:35 PM


Visibility: 10 mi

Pressure: 30.04 "Hg

Humidity: 41%

Dew point: 68 °F

Location of SpartanburgLocation

Historic Weather in Spartanburg — Graph

°F

Spartanburg temperature yesterday

Maximum temperature yesterday: 95 °F (at 3:35 PM)
Minimum temperature yesterday: 72 °F (at 4:55 AM)
Average temperature yesterday: 82 °F

Past Weeks' High & Low Weather Summary

 TemperatureHumidityPressure
High95 °F (Aug 21, 4:15 PM)100% (Aug 19, 1:35 AM)30.21 "Hg (Aug 19, 1:35 AM)
Low63 °F (Aug 26, 5:35 AM)27% (Aug 27, 4:55 PM)29.83 "Hg (Aug 18, 6:15 PM)
Average79 °F74%30.06 "Hg
* Reported Aug 18 1:15 PM — Sep 2 1:35 PM, Spartanburg, Weather by CustomWeather, © 2014

Note: Actual official high and low records may vary slightly from our data, if they occured in-between our weather recording intervals... More about our weather records

Advertising

Spartanburg weather history for previous 24 hours

 ConditionsComfort  
Time TempWeatherWind HumidityBarometerVisibility
1:35 PM
Sep 2
93 °FSunny.7 mph44%30.06 "Hg10 mi
1:15 PM93 °FSunny.No wind47%30.06 "Hg10 mi
12:55 PM91 °FSunny.7 mph49%30.07 "Hg10 mi
12:35 PM91 °FSunny.3 mph49%30.07 "Hg10 mi
11:55 AM90 °FSunny.5 mph55%30.09 "Hg10 mi
11:35 AM90 °FSunny.5 mph55%30.09 "Hg10 mi
11:15 AM90 °FSunny.3 mph55%30.10 "Hg10 mi
10:55 AM88 °FSunny.5 mph59%30.09 "Hg10 mi
10:35 AM88 °FSunny.3 mph59%30.10 "Hg10 mi
10:15 AM86 °FSunny.No wind66%30.09 "Hg10 mi
9:55 AM84 °FSunny.3 mph70%30.10 "Hg10 mi
9:35 AM82 °FSunny.3 mph74%30.09 "Hg10 mi
9:15 AM81 °FSunny.No wind79%30.09 "Hg10 mi
8:55 AM79 °FSunny.No wind84%30.09 "Hg10 mi
8:35 AM77 °FSunny.No wind89%30.09 "Hg10 mi
7:55 AM73 °FClear.No wind100%30.10 "Hg10 mi
7:35 AM72 °FClear.No wind100%30.09 "Hg10 mi
7:15 AM72 °FClear.No wind100%30.09 "Hg10 mi
6:55 AM72 °FClear.No wind100%30.09 "Hg10 mi
6:35 AM72 °FClear.3 mph100%30.08 "Hg10 mi
6:15 AM72 °FClear.3 mph100%30.08 "Hg10 mi
5:55 AM72 °FClear.No wind100%30.08 "Hg10 mi
5:35 AM72 °FClear.No wind100%30.08 "Hg10 mi
5:15 AM73 °FClear.No wind100%30.08 "Hg10 mi
4:55 AM73 °FClear.No wind100%30.08 "Hg10 mi
4:35 AM73 °FClear.No wind100%30.07 "Hg10 mi
4:15 AM72 °FClear.No wind100%30.07 "Hg10 mi
3:55 AM72 °FClear.No wind100%30.07 "Hg10 mi
3:35 AM72 °FClear.No wind100%30.07 "Hg10 mi
3:15 AM73 °FClear.No wind100%30.07 "Hg10 mi
2:55 AM72 °FClear.No wind100%30.07 "Hg10 mi
2:35 AM73 °FClear.No wind100%30.08 "Hg10 mi
2:15 AM73 °FClear.No wind100%30.08 "Hg10 mi
1:55 AM73 °FClear.No wind100%30.08 "Hg10 mi
1:35 AM75 °FClear.No wind94%30.09 "Hg10 mi
1:15 AM75 °FClear.No wind94%30.09 "Hg10 mi
12:55 AM77 °FClear.No wind83%30.09 "Hg10 mi
12:35 AM77 °FClear.No wind83%30.10 "Hg10 mi
12:15 AM77 °FClear.3 mph83%30.10 "Hg10 mi
11:55 PM
Sep 1
77 °FClear.6 mph83%30.10 "Hg10 mi
11:35 PM77 °FClear.3 mph83%30.10 "Hg10 mi
11:15 PM77 °FClear.No wind94%30.11 "Hg10 mi
10:55 PM79 °FClear.No wind79%30.11 "Hg10 mi
10:35 PM79 °FClear.No wind79%30.10 "Hg10 mi
10:15 PM81 °FClear.No wind74%30.10 "Hg10 mi
9:55 PM79 °FClear.No wind79%30.09 "Hg10 mi
9:35 PM81 °FClear.No wind79%30.09 "Hg10 mi
9:15 PM79 °FClear.No wind89%30.08 "Hg10 mi
8:55 PM79 °FClear.No wind84%30.08 "Hg10 mi
8:35 PM82 °FSunny.No wind74%30.07 "Hg10 mi
8:15 PM84 °FSunny.No wind70%30.07 "Hg10 mi
7:55 PM86 °FSunny.No wind62%30.06 "Hg10 mi
7:35 PM88 °FSunny.No wind59%30.06 "Hg10 mi
7:15 PM90 °FSunny.No wind55%30.06 "Hg10 mi
6:55 PM90 °FSunny.No wind52%30.05 "Hg10 mi
6:35 PM90 °FSunny.No wind55%30.05 "Hg10 mi
6:15 PM90 °FSunny.3 mph52%30.06 "Hg10 mi
5:55 PM91 °FSunny.5 mph49%30.05 "Hg10 mi
5:35 PM93 °FSunny.3 mph44%30.06 "Hg10 mi
4:55 PM95 °FSunny.5 mph41%30.06 "Hg10 mi
4:35 PM91 °FSunny.6 mph46%30.07 "Hg10 mi
4:15 PM93 °FSunny.8 mph44%30.07 "Hg10 mi
3:55 PM93 °FSunny.9 mph44%30.08 "Hg10 mi
3:35 PM95 °FSunny.8 mph44%30.08 "Hg10 mi
3:15 PM93 °FSunny.6 mph47%30.09 "Hg10 mi
Weather by CustomWeather, © 2014

See weather overviewHow to use our weather pages